Preview of NWS' New Version of Forecast
This preview is not operational and should not be used for support decisions.

Regional Weather Roundup (RWR)

Issued by National Weather Service (NWS)

                            
000
ASUS43 KLSX 211957
RWRMO 

WEATHER SUMMARY FOR MISSOURI
NATIONAL WEATHER SERVICE SPRINGFIELD MO
300 PM CDT SAT SEP 21 2019

NOTE: "FAIR" INDICATES FEW OR NO CLOUDS BELOW 12,000 FEET WITH NO
       SIGNIFICANT WEATHER AND/OR OBSTRUCTIONS TO VISIBILITY.
       CURRENT SKY AND/OR WEATHER CONDITIONS ARE NOT AVAILABLE FOR
       CHILLICOTHE AND FARMINGTON.

MOZ001>031-035>038-043-044-053-054-212100-
...NORTHERN AND WESTERN MISSOURI...
  
CITY           SKY/WX    TMP DP  RH WIND       PRES   REMARKS
KANSAS CTY INT CLOUDY    74  72  93 S20G32    29.94F                  
LEE'S SUMMIT   LGT RAIN  74  70  87 SW14G22   29.98F                  
ST JOSEPH      CLOUDY    77  71  82 S18G30    29.90S                  
CHILLICOTHE      N/A     75  73  93 S8        29.98S                  
     
$$
MOZ066>068-077>081-088>096-101>105-212100-
...SOUTHWEST MISSOURI...
  
CITY           SKY/WX    TMP DP  RH WIND       PRES   REMARKS
SPRINGFIELD    PTSUNNY   88  66  48 S21G30    30.05F HX  90           
JOPLIN         CLOUDY    81  70  69 S13       30.03F                  
BRANSON        PTSUNNY   82  68  61 SE14      30.10F                  
               
$$
MOZ032>034-039>042-045>050-055>058-069>072-212100-
...CENTRAL MISSOURI...  
  
CITY           SKY/WX    TMP DP  RH WIND       PRES   REMARKS
COLUMBIA       NOT AVBL                                               
JEFFERSON CITY PTSUNNY   78  72  81 S3        30.03F                  
ROLLA          PTSUNNY   83  68  60 S18G24    30.07F                  
SEDALIA        MOSUNNY   76  69  79 S14       30.02S                  
WARRENSBURG    CLOUDY    75  68  78 S17G23    30.00R                  
               
$$
MOZ051-052-059>065-212100-
...EAST CENTRAL MISSOURI...
  
CITY           SKY/WX    TMP DP  RH WIND       PRES   REMARKS
ST LOUIS INTL  PTSUNNY   81  68  64 S10G20    30.07F                  
                   
$$
MOZ072>076-082>087-097>100-106>115-212100-
...SOUTH CENTRAL AND SOUTHEAST MISSOURI...
  
CITY           SKY/WX    TMP DP  RH WIND       PRES   REMARKS
CAPE GIRARDEAU FAIR      86  63  45 SW12      30.12F                  
POPLAR BLUFF   PTSUNNY   84  68  58 S9        30.12F                  
WEST PLAINS    PTSUNNY   81  69  67 S10       30.12F                  
                                       
$$